Location: Arroyo Grande
(40.2671°N, 4.2512°W)
Time: 23:25:30
(UTC+00:00)

Cosmos 2278 Rocket - Pass Details

Date: 30 September 2023
Orbit: 842 x 844 km, 71.0° (Epoch: 03 December)

Event Time Altitude Azimuth Distance (km) Brightness Sun altitude
Rises 21:12:51 0° 320° (NW) 3,408 6.3 -35.9°
Reaches altitude 10° 21:16:02 10° 302° (WNW) 2,467 5.4 -36.4°
Maximum altitude 21:19:43 18° 261° (W) 1,956 4.5 -37.0°
Enters shadow 21:20:48 17° 247° (WSW) 2,003 4.4 -37.1°
